Weather History for PAWG - February, 2012

Change the Weather History Date:

Thursday, February 23, 2012

  Actual Average Record
Temperature  
Mean Temperature 36 °F -  
Max Temperature 39 °F 40 °F 51 °F (1970)
Min Temperature 32 °F 29 °F 6 °F (1956)
Degree Days  
Heating Degree Days 29    
Moisture  
Dew Point 28 °F    
Average Humidity 74    
Maximum Humidity 87    
Minimum Humidity 61    
Precipitation  
Precipitation 0.00 in - - ()
Sea Level Pressure  
Sea Level Pressure 30.25 in    
Wind  
Wind Speed 6 mph (SSE)    
Max Wind Speed 12 mph    
Max Gust Speed 18 mph    
Visibility 10 miles    
Events      
Averages and records for this station are not official NWS values.
T = Trace of Precipitation, MM = Missing Value Source: NWS Daily Summary

Daily Weather History Graph

Daily Weather History Graph

Search for Another Location

Airport or City:

Trip Planner

Search our weather history database for the weather conditions in past years. The results will help you decide how hot, cold, wet, or windy it might be!

Date:

Astronomy

Feb. 23, 2012 Rise Set
Actual Time 6:57 AM AKST 5:09 PM AKST
Civil Twilight 6:19 AM AKST 5:47 PM AKST
Nautical Twilight 5:35 AM AKST 6:31 PM AKST
Astronomical Twilight 4:52 AM AKST 7:15 PM AKST
Moon 6:55 AM AKST (2/23) 7:59 PM AKST (2/23)
Length of Visible Light 11h 28m
Length of Day
10h 11m
Waxing Crescent, 4% of the Moon is Illuminated
Feb 23
Waxing Crescent
Feb 29
First Quarter
Mar 8
Full
Mar 14
Last Quarter
Mar 22
New

Hourly Weather History & Observations

Time (AKST) Temp. Windchill Dew Point Humidity Pressure Visibility Wind Dir Wind Speed Gust Speed Precip Events Conditions
12:16 AM 37.4 °F 33.8 °F 28.4 °F 70% 30.24 in 10.0 mi SW 4.6 mph - N/A   Overcast
12:36 AM 37.4 °F 30.8 °F 28.4 °F 70% 30.24 in 10.0 mi SSW 9.2 mph - N/A   Overcast
12:56 AM 37.4 °F 31.4 °F 26.6 °F 65% 30.24 in 10.0 mi SSW 8.1 mph - N/A   Mostly Cloudy
1:16 AM 37.4 °F 30.8 °F 26.6 °F 65% 30.25 in 10.0 mi SSW 9.2 mph - N/A   Overcast
1:36 AM 37.4 °F 32.1 °F 26.6 °F 65% 30.25 in 10.0 mi SSW 6.9 mph - N/A   Overcast
1:56 AM 37.4 °F 32.8 °F 26.6 °F 65% 30.26 in 10.0 mi SSW 5.8 mph - N/A   Overcast
2:16 AM 37.4 °F 32.8 °F 28.4 °F 70% 30.27 in 10.0 mi SW 5.8 mph - N/A   Overcast
2:36 AM 37.4 °F 32.8 °F 26.6 °F 65% 30.26 in 10.0 mi SSW 5.8 mph - N/A   Overcast
2:56 AM 37.4 °F 30.8 °F 26.6 °F 65% 30.27 in 10.0 mi SSW 9.2 mph - N/A   Overcast
3:16 AM 37.4 °F 31.4 °F 26.6 °F 65% 30.27 in 10.0 mi SW 8.1 mph - N/A   Overcast
3:36 AM 37.4 °F 32.8 °F 26.6 °F 65% 30.27 in 10.0 mi WSW 5.8 mph - N/A   Mostly Cloudy
3:56 AM 35.6 °F 27.5 °F 26.6 °F 70% 30.28 in 9.0 mi WNW 11.5 mph 18.4 mph N/A   Mostly Cloudy
4:16 AM 35.6 °F - 28.4 °F 75% 30.28 in 10.0 mi Calm Calm - N/A   Overcast
4:36 AM 35.6 °F - 26.6 °F 70% 30.28 in 10.0 mi Calm Calm - N/A   Overcast
4:56 AM 35.6 °F 27.5 °F 26.6 °F 70% 30.27 in 7.0 mi West 11.5 mph - N/A   Overcast
5:16 AM 33.8 °F 29.6 °F 28.4 °F 81% 30.28 in 5.0 mi WSW 4.6 mph - N/A   Overcast
5:36 AM 33.8 °F 30.8 °F 28.4 °F 81% 30.28 in 10.0 mi SW 3.5 mph - N/A   Overcast
5:56 AM 33.8 °F 30.8 °F 30.2 °F 87% 30.28 in 10.0 mi SSE 3.5 mph - N/A   Overcast
6:16 AM 33.8 °F 28.6 °F 30.2 °F 87% 30.28 in 10.0 mi ESE 5.8 mph - N/A   Overcast
6:36 AM 33.8 °F 28.6 °F 30.2 °F 87% 30.28 in 10.0 mi East 5.8 mph - N/A   Overcast
6:56 AM 33.8 °F 30.8 °F 30.2 °F 87% 30.28 in 10.0 mi South 3.5 mph - N/A   Overcast
7:16 AM 33.8 °F 30.8 °F 30.2 °F 87% 30.29 in 10.0 mi SSE 3.5 mph - N/A   Overcast
7:36 AM 35.6 °F - 30.2 °F 81% 30.29 in 10.0 mi Calm Calm - N/A   Overcast
7:56 AM 35.6 °F 32.8 °F 28.4 °F 75% 30.29 in 10.0 mi ESE 3.5 mph - N/A   Overcast
8:16 AM 35.6 °F 30.7 °F 28.4 °F 75% 30.29 in 10.0 mi East 5.8 mph - N/A   Mostly Cloudy
8:36 AM 35.6 °F 28.0 °F 30.2 °F 81% 30.29 in 10.0 mi East 10.4 mph - N/A   Mostly Cloudy
8:56 AM 37.4 °F 30.8 °F 28.4 °F 70% 30.28 in 10.0 mi East 9.2 mph - N/A   Mostly Cloudy
9:16 AM 37.4 °F 30.3 °F 30.2 °F 75% 30.29 in 10.0 mi East 10.4 mph - N/A   Mostly Cloudy
9:36 AM 37.4 °F 30.3 °F 30.2 °F 75% 30.29 in 10.0 mi ESE 10.4 mph - N/A   Mostly Cloudy
9:56 AM 37.4 °F 33.8 °F 28.4 °F 70% 30.29 in 10.0 mi East 4.6 mph - N/A   Mostly Cloudy
10:16 AM 37.4 °F 34.9 °F 28.4 °F 70% 30.30 in 10.0 mi East 3.5 mph - N/A   Mostly Cloudy
10:36 AM 39.2 °F 37.0 °F 28.4 °F 65% 30.30 in 10.0 mi North 3.5 mph - N/A   Mostly Cloudy
10:56 AM 39.2 °F 34.2 °F 26.6 °F 61% 30.30 in 10.0 mi SSW 6.9 mph - N/A   Mostly Cloudy
11:16 AM 37.4 °F - 28.4 °F 70% 30.30 in 10.0 mi Calm Calm - N/A   Mostly Cloudy
11:36 AM 37.4 °F 32.8 °F 28.4 °F 70% 30.30 in 10.0 mi East 5.8 mph - N/A   Mostly Cloudy
11:56 AM 39.2 °F 33.6 °F 30.2 °F 70% 30.29 in 10.0 mi ESE 8.1 mph - N/A   Mostly Cloudy
12:16 PM 39.2 °F 34.2 °F 30.2 °F 70% 30.29 in 10.0 mi East 6.9 mph - N/A   Mostly Cloudy
12:36 PM 39.2 °F 37.0 °F 30.2 °F 70% 30.29 in 10.0 mi ESE 3.5 mph - N/A   Mostly Cloudy
12:56 PM 39.2 °F 35.9 °F 28.4 °F 65% 30.28 in 10.0 mi SW 4.6 mph - N/A   Mostly Cloudy
1:16 PM 39.2 °F 32.5 °F 30.2 °F 70% 30.28 in 10.0 mi East 10.4 mph - N/A   Mostly Cloudy
3:36 PM 37.4 °F 30.8 °F 28.4 °F 70% 30.24 in 10.0 mi ESE 9.2 mph - N/A   Partly Cloudy
4:56 PM 35.6 °F 29.2 °F 28.4 °F 75% 30.22 in 10.0 mi ESE 8.1 mph - N/A   Scattered Clouds
5:16 PM 35.6 °F 32.8 °F 26.6 °F 70% 30.22 in 10.0 mi South 3.5 mph - N/A   Scattered Clouds
5:36 PM 35.6 °F - 26.6 °F 70% 30.21 in 10.0 mi Calm Calm - N/A   Scattered Clouds
5:56 PM 35.6 °F 31.7 °F 28.4 °F 75% 30.22 in 10.0 mi SE 4.6 mph - N/A   Clear
6:16 PM 35.6 °F 30.7 °F 28.4 °F 75% 30.21 in 10.0 mi SE 5.8 mph - N/A   Clear
6:36 PM 35.6 °F 29.9 °F 28.4 °F 75% 30.20 in 10.0 mi East 6.9 mph - N/A   Clear
6:56 PM 35.6 °F 29.2 °F 28.4 °F 75% 30.19 in 10.0 mi ESE 8.1 mph - N/A   Partly Cloudy
7:16 PM 35.6 °F 29.2 °F 30.2 °F 81% 30.19 in 10.0 mi ESE 8.1 mph - N/A   Partly Cloudy
7:36 PM 33.8 °F 27.7 °F 28.4 °F 81% 30.18 in 10.0 mi ESE 6.9 mph - N/A   Partly Cloudy
7:56 PM 33.8 °F 27.7 °F 28.4 °F 81% 30.17 in 10.0 mi SE 6.9 mph - N/A   Scattered Clouds
8:16 PM 33.8 °F 28.6 °F 28.4 °F 81% 30.17 in 10.0 mi SSE 5.8 mph - N/A   Scattered Clouds
8:36 PM 33.8 °F 27.0 °F 28.4 °F 81% 30.16 in 10.0 mi SE 8.1 mph - N/A   Scattered Clouds
8:56 PM 33.8 °F 28.6 °F 28.4 °F 81% 30.15 in 10.0 mi SE 5.8 mph - N/A   Clear
9:16 PM 32.0 °F 28.7 °F 28.4 °F 87% 30.14 in 10.0 mi SE 3.5 mph - N/A   Clear
9:36 PM 30.2 °F - 26.6 °F 86% 30.14 in 10.0 mi Calm Calm - N/A   Clear
9:56 PM 30.2 °F 26.7 °F 28.4 °F 93% 30.13 in 10.0 mi SSE 3.5 mph - N/A   Clear
10:16 PM 30.2 °F 25.4 °F 26.6 °F 86% 30.12 in 10.0 mi South 4.6 mph - N/A   Clear
10:36 PM 30.2 °F 24.3 °F 26.6 °F 86% 30.11 in 10.0 mi SE 5.8 mph - N/A   Clear
10:56 PM 30.2 °F 24.3 °F 28.4 °F 93% 30.10 in 10.0 mi SE 5.8 mph - N/A   Clear
11:16 PM 30.2 °F 24.3 °F 26.6 °F 86% 30.10 in 10.0 mi SSE 5.8 mph - N/A   Clear
11:36 PM 30.2 °F 26.7 °F 26.6 °F 86% 30.09 in 10.0 mi SSE 3.5 mph - N/A   Clear
11:56 PM 30.2 °F 22.6 °F 26.6 °F 86% 30.08 in 10.0 mi SE 8.1 mph - N/A   Clear